Location: Chippewa Lake
(41.0698°N, 81.9010°W)
Time: 21:14:06
(UTC+00:00)

Cosmos 2366 rocket - Pass Details

Date: 09 May 2021
Orbit: 955 x 997 km, 82.9° (Epoch: 16 June)

Event Time Altitude Azimuth Distance (km) Brightness Sun altitude
Rises 05:14:56 0° 348° (NNW) 3,648 8.1 -31.5°
Reaches altitude 10° 05:17:28 10° 344° (NNW) 2,701 7.1 -31.5°
Enters shadow 05:22:53 54° 291° (WNW) 1,156 4.4 -31.5°
